[[{"header":{"parameterUnit":"m.s-1","parameterCategory":1,"la1":30.2991,"la2":30.254,"lo1":-89.0895,"lo2":-89.0444,"dy":0.0017,"dx":0.0017,"nx":28,"ny":28,"refTime":"2024-06-25T21:00:00:Z","depth":0,"parameterNumber":2,"parameterNumberName":"U-component_of_WINDS"},"data":[0,0,0,0,0,0,0,0,0,0,0,0,0,0,0,0,0,0,0,0,0,0,0,0,0,0,0,0,0,0,0,0,0,0,0,0,0,0,0,0,0,0,0,0,0,0,0,0,0,0,0,0,0,0,0,0,0,0,1.9454,1.9455,0,1.9562,1.9563,1.9564,1.957,1.9569,1.9568,1.9566,1.968,1.9684,1.9689,0,0,0,0,0,0,0,0,0,0,0,0,0,1.9258,1.9262,1.9454,1.9456,1.9457,1.9561,1.9563,1.9564,1.957,1.9569,1.9567,1.9566,1.9679,1.9684,1.9689,0,0,0,0,0,0,0,0,0,0,0,0,0,1.9352,1.9263,1.9454,1.9472,1.9475,1.9561,1.9563,1.9565,1.9571,1.9569,1.9567,1.9565,1.9677,1.9683,1.969,1.9766,0,0,1.9709,1.9712,0,0,0,0,0,0,0,0,1.9347,1.936,1.9468,1.9471,1.9474,1.955,1.9536,1.9632,1.9571,1.9534,1.9566,1.9564,1.9639,1.9648,1.9673,1.9771,1.9776,1.9709,1.9713,1.9716,1.9718,0,0,0,0,0,0,0,1.9341,1.9355,1.9497,1.947,1.9474,1.9477,1.9488,1.9554,1.9596,1.9537,1.9538,1.9551,1.964,1.9667,1.9675,1.9778,1.9709,1.9715,1.9719,1.9721,1.9946,1.9948,0,0,0,0,0,0,1.933,1.935,1.9493,1.95,1.9405,1.9482,1.9494,1.9528,1.9595,1.9604,1.9552,1.955,1.9657,1.9668,1.9679,1.9773,1.9716,1.9722,1.9725,1.9943,1.9946,1.9948,0,0,0,0,0,0,1.9326,1.9343,1.9489,1.9425,1.9444,1.9487,1.9525,1.9531,1.9557,1.9606,1.9614,1.9571,1.9656,1.9671,1.9744,1.9777,1.9725,1.973,1.9941,1.9944,1.9947,1.9961,0,0,0,0,0,0,1.932,1.9341,1.9369,1.9426,1.9447,1.9551,1.9527,1.9535,1.9568,1.9567,1.9626,1.9634,1.9655,1.9735,1.9751,1.9785,1.9735,1.9938,1.9942,1.9946,1.9958,1.9965,1.997,0,0,0,0,0,1.9313,1.937,1.9371,1.9388,1.9483,1.9553,1.9565,1.9587,1.957,1.96,1.9631,1.9632,1.9771,1.9742,1.976,1.9797,1.9936,1.9941,1.9946,1.9955,1.9964,1.997,0,0,0,0,0,0,1.9318,1.9378,1.9379,1.9456,1.9499,1.9553,1.9591,1.9595,1.9645,1.9642,1.9669,1.9682,1.9755,1.9784,1.975,1.9875,1.9852,1.9861,1.9853,1.9861,1.9867,1.9859,1.9741,0,0,0,0,0,1.9327,1.9377,1.9428,1.949,1.9512,1.9548,1.9579,1.9592,1.9639,1.9657,1.9694,1.974,1.9795,1.983,1.9882,1.9963,1.9976,1.9997,2.0003,2.0008,2.0015,2.006,2.007,1.9965,1.9965,1.9964,0,0,1.9348,1.9387,1.9417,1.9492,1.9527,1.958,1.9563,1.9619,1.9659,1.9666,1.9737,1.9767,1.982,1.9897,1.9934,1.9923,2.0047,2.0014,2.0018,2.0022,2.0066,2.0076,2.0085,1.9968,1.9967,1.9967,0,0,1.9413,1.9447,1.9503,1.9539,1.9592,1.9615,1.9629,1.9683,1.9702,1.9774,1.9781,1.9829,1.9922,1.996,1.9991,2.0071,2.0074,2.0088,2.0119,2.0163,2.0172,2.0179,2.0208,2.0218,2.0095,2.0095,2.0095,0,1.9432,1.951,1.9532,1.9588,1.9621,1.9629,1.9687,1.9721,1.9789,1.9812,1.98,1.9916,1.9953,2.0039,2.0059,2.0084,2.0101,2.0081,2.0168,2.0176,2.0183,2.0211,2.0222,2.0096,2.0096,2.0096,2.0096,0,1.9531,1.9586,1.9625,1.9689,1.9727,1.9783,1.9815,1.9851,1.9861,1.9887,1.9961,2.0005,2.0067,2.0089,2.01,2.0177,2.0169,2.0162,2.014,2.0194,2.0221,2.0232,2.0098,2.0097,2.0097,2.0097,0,0,1.9601,1.9676,1.969,1.972,1.9779,1.9822,1.988,1.9939,1.997,2.0017,2.0067,2.0145,2.0139,2.0175,2.0191,2.0229,2.029,2.0218,2.022,2.0229,2.0379,2.0383,2.0395,2.0293,2.0295,2.0296,2.0374,0,1.9671,1.9772,1.9794,1.9882,1.9933,1.9942,1.9993,2.0035,2.0061,2.0109,2.0139,2.0193,2.0181,2.0203,2.0242,2.0274,2.032,2.0269,2.034,2.0342,2.0325,2.0408,2.0413,2.0484,2.0384,2.0386,2.0388,0,1.9767,1.9815,1.9907,1.9961,1.9983,2.0028,2.0084,2.013,2.0179,2.0195,2.0235,2.0247,2.0309,2.0284,2.037,2.0335,2.0366,2.0386,2.039,2.0397,2.0367,2.0417,2.0507,2.0518,2.0404,2.0403,2.0402,0,1.9807,1.9896,1.9962,1.9988,2.0052,2.0083,2.0111,2.0159,2.0193,2.0244,2.0266,2.0324,2.0355,2.04,2.0427,2.0406,2.0512,2.0489,2.0527,2.0527,2.0548,2.0547,2.0644,2.0569,2.0569,2.0569,2.0568,0,1.9883,1.9939,1.9981,2.0022,2.0086,2.0112,2.0175,2.0203,2.0246,2.0294,2.0306,2.0351,2.0385,2.0435,2.0458,2.0526,2.054,2.0556,2.0561,2.0554,2.0552,2.0574,2.057,2.0572,2.0571,2.057,2.057,0,1.9939,1.9969,2.0042,2.0097,2.0113,2.0157,2.0205,2.0246,2.0272,2.0333,2.0348,2.039,2.045,2.0482,2.0558,2.0573,2.0649,2.0652,2.0632,2.0634,2.0671,2.0667,2.0785,2.0802,2.0716,2.0717,2.0718,0,1.9985,2.0028,2.0088,2.012,2.0149,2.0201,2.0236,2.0264,2.03,2.036,2.0394,2.0454,2.0504,2.0599,2.0637,2.0695,2.0699,2.0737,2.0708,2.07,2.07,2.0697,2.0701,2.0742,2.0743,2.0743,2.0744,0,2.0063,2.0076,2.0125,2.0181,2.0222,2.0267,2.0312,2.0338,2.0374,2.0414,2.0475,2.0513,2.059,2.065,2.0711,2.0742,2.0749,2.0753,2.0765,2.0758,2.0744,2.0752,2.0645,2.075,2.0749,2.0749,2.0748,2.0748,2.0115,2.0154,2.0202,2.0257,2.0294,2.0335,2.0376,2.0408,2.0459,2.0522,2.0536,2.0601,2.0651,2.0733,2.0766,2.0818,2.081,2.0828,2.0832,2.0836,2.0837,2.0737,2.0829,2.0829,2.0829,2.0829,2.0829,0,2.0193,2.0225,2.0275,2.0337,2.0381,2.0384,2.0434,2.047,2.0526,2.0572,2.062,2.069,2.0749,2.0792,2.0852,2.0885,2.089,2.09,2.0898,2.0905,2.084,2.0824,2.0895,2.0895,2.0895,2.0895,2.0895,2.0895,2.0239,2.0305,2.0324,2.041,2.0442,2.0503,2.0532,2.0571,2.0607,2.0685,2.0733,2.0761,2.0806,2.087,2.0924,2.0935,2.0957,2.0966,2.0978,2.0917,2.0909,2.0903,2.0887,2.0971,2.0971,2.1038,2.1039,2.104]},{"header":{"parameterUnit":"m.s-1","parameterCategory":1,"la1":30.2991,"la2":30.254,"lo1":-89.0895,"lo2":-89.0444,"dy":0.0017,"dx":0.0017,"nx":28,"ny":28,"refTime":"2024-06-25T21:00:00:Z","depth":0,"parameterNumber":3,"parameterNumberName":"V-component_of_WINDS"},"data":[0,0,0,0,0,0,0,0,0,0,0,0,0,0,0,0,0,0,0,0,0,0,0,0,0,0,0,0,0,0,0,0,0,0,0,0,0,0,0,0,0,0,0,0,0,0,0,0,0,0,0,0,0,0,0,0,0,0,4.1892,4.1891,0,4.1857,4.1857,4.1857,4.1863,4.1864,4.1864,4.1865,4.1822,4.182,4.1819,0,0,0,0,0,0,0,0,0,0,0,0,0,4.1956,4.1955,4.1892,4.1891,4.1891,4.1857,4.1857,4.1856,4.1863,4.1864,4.1864,4.1865,4.1823,4.1821,4.1818,0,0,0,0,0,0,0,0,0,0,0,0,0,4.1926,4.1955,4.1892,4.189,4.189,4.1858,4.1857,4.1856,4.1863,4.1864,4.1865,4.1866,4.1823,4.1821,4.1818,4.1783,0,0,4.181,4.1809,0,0,0,0,0,0,0,0,4.1927,4.1923,4.1891,4.189,4.189,4.1866,4.1864,4.1831,4.1863,4.1873,4.1865,4.1866,4.1835,4.1832,4.1823,4.1781,4.1779,4.181,4.1808,4.1807,4.1807,0,0,0,0,0,0,0,4.193,4.1925,4.1878,4.189,4.189,4.1889,4.1886,4.1858,4.1849,4.1872,4.1872,4.1869,4.1835,4.1825,4.1822,4.1779,4.181,4.1808,4.1806,4.1805,4.1706,4.1705,0,0,0,0,0,0,4.1933,4.1926,4.1879,4.1877,4.1912,4.1887,4.1884,4.1872,4.1849,4.1847,4.1868,4.1869,4.1829,4.1825,4.182,4.1778,4.1807,4.1805,4.1803,4.1707,4.1706,4.1705,0,0,0,0,0,0,4.1935,4.1929,4.188,4.1902,4.1896,4.1885,4.1872,4.1871,4.1862,4.1846,4.1844,4.186,4.183,4.1824,4.1793,4.1776,4.1804,4.1801,4.1708,4.1707,4.1705,4.1692,0,0,0,0,0,0,4.1936,4.1929,4.1917,4.1902,4.1895,4.1855,4.1871,4.187,4.1858,4.1859,4.1838,4.1836,4.183,4.1797,4.179,4.1773,4.1799,4.171,4.1708,4.1706,4.1694,4.169,4.1687,0,0,0,0,0,4.1939,4.1913,4.1917,4.1911,4.188,4.1854,4.185,4.1847,4.1857,4.1843,4.1834,4.1836,4.178,4.1794,4.1786,4.1768,4.1711,4.1708,4.1706,4.1696,4.1691,4.1687,0,0,0,0,0,0,4.1924,4.1911,4.1915,4.1884,4.1871,4.1856,4.1839,4.1842,4.1823,4.1825,4.1819,4.1814,4.1782,4.1772,4.1788,4.1733,4.1746,4.1742,4.1741,4.1737,4.1733,4.1736,4.1797,0,0,0,0,0,4.1918,4.1901,4.1889,4.1863,4.1856,4.1849,4.1838,4.1837,4.1821,4.1815,4.1803,4.1786,4.1764,4.175,4.1729,4.1693,4.1688,4.1677,4.1674,4.1671,4.1667,4.1647,4.1642,4.1697,4.1697,4.1697,0,0,4.1903,4.1894,4.1883,4.186,4.1849,4.183,4.1844,4.1822,4.1807,4.1811,4.1781,4.1772,4.1753,4.1719,4.1703,4.1709,4.1651,4.1668,4.1666,4.1663,4.1644,4.1639,4.1634,4.1695,4.1695,4.1696,0,0,4.1867,4.1859,4.1837,4.1827,4.1812,4.1807,4.1802,4.1787,4.1782,4.1753,4.1756,4.1736,4.1699,4.1686,4.1674,4.1635,4.1636,4.1628,4.161,4.159,4.1586,4.1582,4.1567,4.1562,4.1625,4.1625,4.1625,0,4.1851,4.1824,4.1824,4.1803,4.1792,4.1798,4.1774,4.1764,4.1741,4.1733,4.1741,4.1696,4.1683,4.1646,4.1637,4.1628,4.162,4.163,4.1587,4.1583,4.1579,4.1565,4.156,4.1624,4.1624,4.1624,4.1624,0,4.1804,4.1785,4.1768,4.175,4.1737,4.1715,4.171,4.1697,4.1697,4.1691,4.1661,4.1647,4.1624,4.1615,4.1614,4.1578,4.1583,4.1589,4.1602,4.1573,4.156,4.1555,4.1622,4.1623,4.1623,4.1623,0,0,4.1755,4.174,4.1733,4.1726,4.171,4.1695,4.1672,4.1652,4.1641,4.1626,4.1606,4.1576,4.1582,4.1569,4.1566,4.1549,4.1519,4.1557,4.1557,4.155,4.1478,4.1473,4.1467,4.152,4.1519,4.1519,4.1479,0,4.1717,4.168,4.1681,4.1646,4.1628,4.1634,4.1614,4.1602,4.1596,4.1578,4.1571,4.155,4.156,4.1552,4.1536,4.1526,4.1504,4.1529,4.15,4.1499,4.1503,4.146,4.1454,4.1417,4.1474,4.1473,4.1473,0,4.1667,4.1654,4.1618,4.1607,4.1599,4.1582,4.1564,4.1548,4.1533,4.153,4.1517,4.1517,4.1493,4.1508,4.1473,4.149,4.1478,4.1472,4.147,4.1466,4.1483,4.1453,4.1406,4.14,4.1464,4.1465,4.1466,0,4.1635,4.1608,4.1583,4.1576,4.1562,4.155,4.1543,4.153,4.1519,4.1502,4.1495,4.1475,4.1463,4.1447,4.1442,4.1453,4.1407,4.1421,4.1402,4.1402,4.139,4.1391,4.1339,4.1384,4.1385,4.1385,4.1385,0,4.1592,4.1569,4.1569,4.1553,4.1528,4.1528,4.1502,4.1496,4.1485,4.1467,4.147,4.1453,4.1448,4.1429,4.1424,4.1396,4.139,4.1386,4.1385,4.1385,4.1385,4.1376,4.1378,4.1383,4.1384,4.1384,4.1384,0,4.1551,4.155,4.1523,4.1513,4.151,4.1492,4.1483,4.1467,4.1463,4.144,4.1434,4.1427,4.1405,4.1399,4.1371,4.1368,4.1335,4.1336,4.134,4.134,4.132,4.1322,4.126,4.1251,4.1303,4.1303,4.1302,0,4.1523,4.1506,4.1496,4.1485,4.1479,4.1462,4.1451,4.1451,4.1439,4.1422,4.1408,4.1388,4.1371,4.1335,4.1326,4.1305,4.1305,4.1285,4.1302,4.1303,4.1304,4.1305,4.1303,4.1281,4.1281,4.128,4.128,0,4.1473,4.1474,4.1459,4.1445,4.1433,4.142,4.1408,4.1399,4.1397,4.1383,4.1363,4.135,4.1324,4.1303,4.1283,4.1273,4.1275,4.1275,4.1269,4.1269,4.1272,4.1269,4.133,4.1276,4.1276,4.1277,4.1277,4.1277,4.1437,4.1423,4.1414,4.1397,4.1389,4.1379,4.1364,4.1359,4.1343,4.1324,4.1324,4.1301,4.1288,4.1261,4.1251,4.1232,4.1238,4.1229,4.1227,4.1225,4.1223,4.1276,4.1228,4.1228,4.1228,4.1228,4.1228,0,4.1387,4.1382,4.1367,4.1352,4.1339,4.1347,4.1334,4.1322,4.1303,4.1292,4.1276,4.1253,4.1233,4.1223,4.1202,4.1189,4.119,4.1184,4.1184,4.1182,4.1219,4.1226,4.1184,4.1184,4.1184,4.1184,4.1184,4.1184,4.1359,4.1335,4.1335,4.1307,4.1302,4.1282,4.1275,4.1264,4.1256,4.123,4.1215,4.121,4.1198,4.1178,4.1159,4.1157,4.1148,4.1142,4.1139,4.1174,4.1179,4.1183,4.119,4.114,4.114,4.1103,4.1103,4.1103]}]]